[[{"header":{"parameterUnit":"m.s-1","parameterCategory":1,"la1":30.2991,"la2":30.254,"lo1":-89.0895,"lo2":-89.0444,"dy":0.0017,"dx":0.0017,"nx":28,"ny":28,"refTime":"2024-08-13T21:00:00:Z","depth":0,"parameterNumber":2,"parameterNumberName":"U-component_of_WINDS"},"data":[0,0,0,0,0,0,0,0,0,0,0,0,0,0,0,0,0,0,0,0,0,0,0,0,0,0,0,0,0,0,0,0,0,0,0,0,0,0,0,0,0,0,0,0,0,0,0,0,0,0,0,0,0,0,0,0,0,0,2.0313,2.0317,0,2.0716,2.072,2.0725,2.0897,2.0896,2.0896,2.0895,2.1307,2.1318,2.133,0,0,0,0,0,0,0,0,0,0,0,0,0,1.9694,1.9704,2.0312,2.0318,2.0323,2.0715,2.072,2.0726,2.0897,2.0896,2.0895,2.0895,2.1303,2.1317,2.1331,0,0,0,0,0,0,0,0,0,0,0,0,0,2.0016,1.9707,2.0312,2.0455,2.0472,2.0714,2.0721,2.0727,2.0897,2.0896,2.0895,2.0894,2.1298,2.1315,2.1333,2.1461,0,0,2.1386,2.1393,0,0,0,0,0,0,0,0,1.9997,2.0038,2.0429,2.0446,2.0465,2.0755,2.0653,2.0973,2.0898,2.0736,2.0895,2.0894,2.1124,2.1156,2.1234,2.148,2.1498,2.1387,2.1398,2.1405,2.141,0,0,0,0,0,0,0,1.9975,2.0022,2.0472,2.0435,2.0457,2.05,2.0545,2.0715,2.0931,2.075,2.0763,2.0809,2.1134,2.1216,2.1244,2.1504,2.1387,2.1402,2.1413,2.142,2.188,2.1882,0,0,0,0,0,0,1.9929,2.0002,2.0459,2.0484,2.0224,2.0512,2.0562,2.0663,2.093,2.0969,2.0809,2.0815,2.1187,2.1224,2.126,2.143,2.1405,2.1422,2.1432,2.1878,2.188,2.1882,0,0,0,0,0,0,1.9915,1.9968,2.0443,2.0247,2.0311,2.0524,2.0636,2.0672,2.0754,2.0974,2.1014,2.0854,2.1188,2.1235,2.1411,2.1446,2.1429,2.1445,2.1876,2.1879,2.1881,2.1768,0,0,0,0,0,0,1.9896,1.9962,2.0012,2.0247,2.0321,2.0586,2.0638,2.068,2.0784,2.0796,2.1027,2.1064,2.1191,2.1384,2.1428,2.147,2.1459,2.1874,2.1877,2.188,2.177,2.1767,2.1764,0,0,0,0,0,1.9873,1.9963,2.0014,2.0068,2.0388,2.0588,2.063,2.0774,2.0786,2.0839,2.0981,2.1057,2.1435,2.14,2.1451,2.1499,2.1872,2.1876,2.188,2.1771,2.1767,2.1764,0,0,0,0,0,0,1.9726,1.9997,2.0055,2.0224,2.0381,2.0616,2.0687,2.0765,2.0922,2.0927,2.1099,2.115,2.131,2.1423,2.1379,2.1639,2.166,2.1674,2.156,2.1558,2.1555,2.1525,2.1473,0,0,0,0,0,1.9713,1.9852,2.0082,2.0208,2.0285,2.0472,2.0564,2.0662,2.0832,2.0899,2.1054,2.1216,2.1373,2.1472,2.1627,2.1787,2.1841,2.1846,2.1843,2.184,2.185,2.1946,2.1951,2.1895,2.1895,2.1895,0,0,1.9688,1.9853,1.993,2.0183,2.0317,2.0458,2.0527,2.0672,2.078,2.0922,2.1097,2.1216,2.141,2.1578,2.166,2.1677,2.1878,2.1845,2.184,2.1853,2.195,2.1955,2.1959,2.1898,2.1898,2.1897,0,0,1.9714,1.9852,1.9974,2.0107,2.031,2.0434,2.0463,2.0688,2.0772,2.0951,2.1062,2.1192,2.1456,2.159,2.1693,2.1773,2.1849,2.1819,2.1804,2.1895,2.1899,2.1904,2.1934,2.1942,2.1828,2.1828,2.1828,0,1.9657,1.9874,2.0027,2.0168,2.0277,2.0413,2.0539,2.066,2.0902,2.0975,2.099,2.1327,2.1466,2.1669,2.1689,2.1767,2.1807,2.1793,2.1886,2.1893,2.1899,2.193,2.194,2.1823,2.1824,2.1824,2.1825,0,1.9795,1.9943,2.0018,2.0249,2.0367,2.0498,2.0673,2.0773,2.0861,2.0984,2.1166,2.1339,2.1533,2.1588,2.1675,2.1805,2.1809,2.1853,2.1877,2.1897,2.1929,2.1941,2.1816,2.1818,2.1819,2.1821,0,0,1.9737,2.0054,2.0078,2.0186,2.0421,2.0539,2.0679,2.0869,2.0953,2.1116,2.1238,2.146,2.1503,2.1619,2.1723,2.1803,2.1858,2.1838,2.1845,2.1836,2.2013,2.1978,2.1989,2.191,2.1913,2.1915,2.1997,0,1.9796,2.0052,2.0195,2.0391,2.0532,2.0665,2.0787,2.0944,2.1063,2.1201,2.1333,2.1489,2.1533,2.1604,2.1689,2.1832,2.1895,2.1829,2.2026,2.2031,2.1973,2.2006,2.197,2.2039,2.201,2.2013,2.2014,0,1.9898,2.006,2.027,2.0491,2.0556,2.0662,2.085,2.0979,2.1161,2.1243,2.1374,2.1478,2.1631,2.1644,2.1859,2.1811,2.1901,2.1983,2.199,2.2013,2.2023,2.2031,2.2064,2.2074,2.2035,2.2033,2.2032,0,1.9837,2.0107,2.0269,2.0357,2.0618,2.069,2.0803,2.0984,2.109,2.1254,2.1325,2.1505,2.1603,2.174,2.189,2.1885,2.2091,2.2116,2.2164,2.216,2.2201,2.2196,2.2248,2.2257,2.2257,2.2257,2.2257,0,1.9888,2.0011,2.0245,2.0344,2.0488,2.0652,2.0789,2.0912,2.1073,2.1199,2.1325,2.1441,2.1632,2.1772,2.1891,2.2052,2.2095,2.2166,2.2196,2.2155,2.2146,2.2216,2.2215,2.226,2.2259,2.2259,2.2258,0,1.9843,2.0004,2.0189,2.0422,2.0484,2.0579,2.0779,2.0881,2.1008,2.1166,2.1213,2.1412,2.1584,2.1748,2.1977,2.2057,2.2219,2.2258,2.2157,2.2173,2.2212,2.2206,2.2312,2.2335,2.2326,2.2326,2.2326,0,1.9864,1.9963,2.0207,2.0301,2.0411,2.056,2.067,2.0836,2.0945,2.1161,2.1237,2.1419,2.1572,2.1841,2.2006,2.2183,2.2228,2.2253,2.2255,2.2212,2.223,2.2222,2.2233,2.2249,2.2248,2.2248,2.2247,0,1.9887,1.9962,2.0115,2.0297,2.0424,2.0575,2.073,2.08,2.0996,2.1113,2.129,2.1409,2.1645,2.1824,2.202,2.2137,2.2225,2.2245,2.2266,2.2225,2.2163,2.2198,2.2148,2.2242,2.2242,2.2243,2.2243,2.2243,1.9878,1.9972,2.0159,2.0326,2.046,2.0603,2.0711,2.0852,2.1003,2.1207,2.1296,2.1476,2.1659,2.1932,2.2048,2.2192,2.2212,2.2241,2.2249,2.2254,2.2246,2.2139,2.2228,2.2228,2.2229,2.2229,2.2229,0,1.9907,2.0034,2.0186,2.04,2.0531,2.0604,2.078,2.0885,2.1042,2.1204,2.1354,2.1559,2.1733,2.1913,2.2099,2.2179,2.2225,2.2222,2.2218,2.2244,2.2216,2.218,2.2183,2.2183,2.2183,2.2183,2.2183,2.2183,1.9938,2.0102,2.02,2.0433,2.0561,2.0737,2.0832,2.0965,2.1096,2.1319,2.1465,2.1581,2.1752,2.1951,2.2115,2.2164,2.2227,2.2213,2.2273,2.2243,2.2246,2.2248,2.2215,2.2225,2.2225,2.229,2.229,2.229]},{"header":{"parameterUnit":"m.s-1","parameterCategory":1,"la1":30.2991,"la2":30.254,"lo1":-89.0895,"lo2":-89.0444,"dy":0.0017,"dx":0.0017,"nx":28,"ny":28,"refTime":"2024-08-13T21:00:00:Z","depth":0,"parameterNumber":3,"parameterNumberName":"V-component_of_WINDS"},"data":[0,0,0,0,0,0,0,0,0,0,0,0,0,0,0,0,0,0,0,0,0,0,0,0,0,0,0,0,0,0,0,0,0,0,0,0,0,0,0,0,0,0,0,0,0,0,0,0,0,0,0,0,0,0,0,0,0,0,-0.071,-0.0711,0,-0.0822,-0.0824,-0.0825,-0.0866,-0.0866,-0.0865,-0.0865,-0.0981,-0.0985,-0.0988,0,0,0,0,0,0,0,0,0,0,0,0,0,-0.053,-0.0533,-0.071,-0.0711,-0.0712,-0.0822,-0.0824,-0.0825,-0.0866,-0.0866,-0.0865,-0.0865,-0.098,-0.0984,-0.0988,0,0,0,0,0,0,0,0,0,0,0,0,0,-0.0622,-0.0534,-0.0709,-0.0746,-0.075,-0.0822,-0.0824,-0.0826,-0.0866,-0.0866,-0.0865,-0.0865,-0.0979,-0.0984,-0.0989,-0.1032,0,0,-0.1005,-0.1007,0,0,0,0,0,0,0,0,-0.0617,-0.0629,-0.0739,-0.0744,-0.0749,-0.083,-0.0803,-0.0895,-0.0866,-0.0822,-0.0865,-0.0864,-0.0931,-0.094,-0.0963,-0.1038,-0.1043,-0.1005,-0.1008,-0.1011,-0.1012,0,0,0,0,0,0,0,-0.061,-0.0624,-0.0754,-0.0741,-0.0747,-0.0757,-0.0769,-0.0821,-0.0879,-0.0826,-0.0829,-0.0842,-0.0934,-0.0958,-0.0966,-0.1045,-0.1005,-0.101,-0.1013,-0.1015,-0.1161,-0.1162,0,0,0,0,0,0,-0.0598,-0.0618,-0.0751,-0.0758,-0.068,-0.0761,-0.0775,-0.0804,-0.0878,-0.0889,-0.0842,-0.0844,-0.0949,-0.096,-0.097,-0.1026,-0.101,-0.1015,-0.1018,-0.1161,-0.1162,-0.1162,0,0,0,0,0,0,-0.0594,-0.0609,-0.0746,-0.0689,-0.0707,-0.0764,-0.0797,-0.0807,-0.0831,-0.0891,-0.0901,-0.0856,-0.0949,-0.0963,-0.1017,-0.1031,-0.1018,-0.1022,-0.116,-0.1161,-0.1162,-0.1138,0,0,0,0,0,0,-0.0589,-0.0608,-0.0624,-0.0689,-0.071,-0.079,-0.0798,-0.0809,-0.0839,-0.0842,-0.0906,-0.0916,-0.095,-0.1009,-0.1022,-0.1037,-0.1026,-0.1159,-0.116,-0.1162,-0.1138,-0.1138,-0.1138,0,0,0,0,0,-0.0582,-0.0613,-0.0625,-0.0641,-0.0732,-0.0791,-0.0803,-0.0841,-0.084,-0.0858,-0.0897,-0.0914,-0.1027,-0.1014,-0.1029,-0.1046,-0.1158,-0.116,-0.1161,-0.1138,-0.1138,-0.1138,0,0,0,0,0,0,-0.0549,-0.0622,-0.0636,-0.0689,-0.0734,-0.0798,-0.0821,-0.084,-0.0885,-0.0886,-0.0931,-0.0945,-0.0995,-0.1026,-0.101,-0.1093,-0.1094,-0.1098,-0.107,-0.1071,-0.1072,-0.1063,-0.1031,0,0,0,0,0,-0.0548,-0.0589,-0.0651,-0.0692,-0.0714,-0.0763,-0.079,-0.0816,-0.0863,-0.0882,-0.0925,-0.0971,-0.1016,-0.1046,-0.1091,-0.1143,-0.1157,-0.1162,-0.1162,-0.1162,-0.1166,-0.1196,-0.1199,-0.1168,-0.1168,-0.1168,0,0,-0.0546,-0.0591,-0.0615,-0.0687,-0.0724,-0.0766,-0.0779,-0.0823,-0.0855,-0.0889,-0.0942,-0.0975,-0.1029,-0.1082,-0.1108,-0.111,-0.1178,-0.1165,-0.1164,-0.1168,-0.1198,-0.1201,-0.1203,-0.1169,-0.1169,-0.1169,0,0,-0.0564,-0.0602,-0.0641,-0.0678,-0.0734,-0.0767,-0.0776,-0.0838,-0.0861,-0.0915,-0.0942,-0.098,-0.1058,-0.1096,-0.1125,-0.1157,-0.1176,-0.1171,-0.1173,-0.1201,-0.1204,-0.1206,-0.1218,-0.1221,-0.1175,-0.1175,-0.1175,0,-0.0554,-0.0619,-0.0658,-0.0701,-0.0731,-0.0765,-0.0804,-0.0838,-0.0906,-0.0927,-0.0928,-0.1027,-0.1066,-0.1128,-0.1136,-0.1158,-0.117,-0.1164,-0.12,-0.1203,-0.1206,-0.1217,-0.1221,-0.1174,-0.1174,-0.1174,-0.1174,0,-0.0604,-0.0648,-0.0673,-0.0737,-0.0771,-0.0812,-0.0857,-0.0887,-0.0909,-0.0942,-0.0997,-0.1045,-0.1101,-0.1117,-0.114,-0.1183,-0.1182,-0.1191,-0.1193,-0.1207,-0.1218,-0.1223,-0.1172,-0.1173,-0.1173,-0.1173,0,0,-0.0604,-0.069,-0.0699,-0.0728,-0.0793,-0.0828,-0.087,-0.0925,-0.0949,-0.0995,-0.1032,-0.1097,-0.1106,-0.1139,-0.1166,-0.1191,-0.1214,-0.1197,-0.1199,-0.1198,-0.1264,-0.1257,-0.1261,-0.1226,-0.1227,-0.1228,-0.1259,0,-0.063,-0.0707,-0.0744,-0.0805,-0.0846,-0.0878,-0.0915,-0.0959,-0.0991,-0.1031,-0.1066,-0.1112,-0.112,-0.114,-0.1167,-0.1205,-0.1227,-0.1203,-0.1261,-0.1262,-0.1246,-0.1267,-0.1259,-0.1287,-0.1264,-0.1265,-0.1266,0,-0.0671,-0.0717,-0.0781,-0.0841,-0.086,-0.0893,-0.0945,-0.0983,-0.1034,-0.1055,-0.1092,-0.1118,-0.1164,-0.1163,-0.1227,-0.121,-0.1236,-0.1259,-0.1261,-0.1267,-0.1264,-0.1274,-0.1296,-0.13,-0.1273,-0.1273,-0.1272,0,-0.0664,-0.0742,-0.0791,-0.0816,-0.0887,-0.0909,-0.0939,-0.0989,-0.102,-0.1066,-0.1086,-0.1137,-0.1165,-0.1204,-0.1244,-0.1239,-0.1304,-0.1306,-0.1323,-0.1322,-0.1335,-0.1334,-0.1362,-0.1352,-0.1352,-0.1352,-0.1352,0,-0.069,-0.0728,-0.0789,-0.0819,-0.0863,-0.0905,-0.0947,-0.098,-0.1025,-0.1062,-0.1093,-0.1127,-0.1177,-0.1218,-0.1249,-0.1297,-0.131,-0.1329,-0.1336,-0.1326,-0.1323,-0.1343,-0.1342,-0.1353,-0.1353,-0.1353,-0.1352,0,-0.0689,-0.0732,-0.0787,-0.085,-0.0866,-0.0896,-0.095,-0.0981,-0.1014,-0.1061,-0.1074,-0.1127,-0.1177,-0.122,-0.1285,-0.1306,-0.1356,-0.1365,-0.1338,-0.1343,-0.1357,-0.1355,-0.1399,-0.1407,-0.1391,-0.1391,-0.1392,0,-0.0702,-0.0733,-0.0799,-0.0826,-0.0856,-0.0899,-0.093,-0.0973,-0.1004,-0.1064,-0.1087,-0.1139,-0.1183,-0.126,-0.1305,-0.1355,-0.1366,-0.1378,-0.1374,-0.1362,-0.1366,-0.1363,-0.1367,-0.1377,-0.1377,-0.1377,-0.1377,0,-0.0721,-0.0741,-0.0784,-0.0835,-0.0872,-0.0914,-0.0957,-0.0977,-0.1028,-0.1062,-0.1113,-0.1147,-0.1213,-0.1264,-0.132,-0.1352,-0.1373,-0.1378,-0.1385,-0.1374,-0.1357,-0.1367,-0.1338,-0.1377,-0.1377,-0.1377,-0.1377,-0.1377,-0.0728,-0.0756,-0.0807,-0.0855,-0.0892,-0.0932,-0.0963,-0.1001,-0.1044,-0.1101,-0.1124,-0.1176,-0.1226,-0.1303,-0.1335,-0.1376,-0.138,-0.1389,-0.1392,-0.1393,-0.1391,-0.1351,-0.1386,-0.1386,-0.1386,-0.1387,-0.1387,0,-0.0748,-0.0783,-0.0826,-0.0885,-0.0923,-0.094,-0.0989,-0.1019,-0.1064,-0.1109,-0.1151,-0.121,-0.1259,-0.1308,-0.136,-0.1384,-0.1395,-0.1396,-0.1395,-0.1402,-0.1385,-0.1374,-0.1386,-0.1386,-0.1386,-0.1386,-0.1386,-0.1386,-0.0763,-0.0812,-0.0838,-0.0905,-0.094,-0.099,-0.1017,-0.1054,-0.109,-0.1154,-0.1195,-0.1226,-0.1273,-0.1329,-0.1375,-0.1388,-0.1406,-0.1404,-0.142,-0.1403,-0.1403,-0.1402,-0.1392,-0.1408,-0.1408,-0.1433,-0.1433,-0.1433]}]]